Torino / Caselle International Airport LIMF

Flugplatz Daten

Name: Torino / Caselle International Airport

Ident: LIMF

Lat: 45,20080185

Long: 7,64963007

Platzhöhe: 989 ft

IataCode: TRN

City: Torino

Homepage: http://www.turin-airport.com/IT/voli/default.php

Metar

2022/08/13 16:50
LIMF 131650Z 11005KT 060V140 CAVOK 29/12 Q1012

Taf

2022/08/13 12:00
TAF LIMF 131100Z 1312/1412 VRB05KT CAVOK
Gewünschte Webcam nicht vorhanden? Dann fügen Sie eine hinzu. Sie wird dann so schnell wie möglich freigeschaltet
Url: Title: